SCP
0 -0 0 0 0 0 0 0 0 0 0 0 0 0 0 0 0 0 0 0 0 0 0 0 0 0 0 0 0 0 0 0
-0 -0 0 0 0 0 0 0 0 0 0 0 0 0 0 0 0 0 0 0 0 0 0 0 0 0 0 0 0 0 0 0
-0 -0 0 0 0 0 0 0 0 0 0 0 0 0 0 0 0 0 0 0 0 0 0 0 0 0 0 0 0 0 0 0
0 0 0 0 0 0 0 0 0 0 0 0 0 0 0 0 0 0 0 0 0 0 0 0 0 0 0 0 0 0 0 0
0 0 0 0 0 0 0 0 0 0 0 0 0 0 0 0 0 0 0 0 0 0 0 0 0 0 0 0 0 0 0 0
0 0 0 0 0 0 0 0 0 0 0 0 0 0 0 0 0 0 0 0 0 0 0 0 0 0 0 0 0 0 0 0
0 0 0 0 0 0 0 0 0 0 0 -0 0 0 -0 0 -0 0 0 0 0 -0 -0 -0 0 -0 -0 -0 0 0 0 0
0 0 0 0 0 0 0 0 0 0 0 -0 0 0 0 -0 0 0 0 0 0 0 0 0 0 0 -0 -0 0 0 0 0
0 0 0 0 -0 -0 0 0 0 -0 0 0 0 0 0 0 0 -0 -0 0 0 0 -0 -0 -0 -0 -0 -0 0 0 0 0
0 0 0 0 0 0 0 -0 -0 0 0 0 0 -0 0 -0 -0 -0 0 0 -0 -0 -0 -0 -0 -0 -0 0 0 0 0 0
0 0 0 0 0 0 0 0 -0 -0 0 0 -0 -0 -0 -0 -0 -0 0 0 -0 -0 -0 0 -0 0 0 0 0 0 0 0
-0 0 0 0 0 0 0 0 0 -0 -0 -0 -0 -0 -0 -0 0 0 0 -0 0 0 0 0 0 0 0 0 -0 -0 -0 -0
-0 -0 -0 -0 -0 0 0 0 -0 -0 -0 -0 -0 0 0 0 0 0 -0 0 0 0 -0 -0 -0 -0 -0 -0 -0 0 -0 0
-0 -0 -0 -0 -0 0 0 -0 0 0 0 0 -0 -0 -0 0 0 -0 0 0 0 -0 -0 -0 -0 -0 -0 -0 0 0 0 0
-0 -0 -0 -0 -0 -0 0 0 0 0 0 0 0 0 0 0 0 0 0 0 0 0 0 0 -0 0 0 0 0 0 0 0
-0 -0 -0 -0 0 0 0 0 0 0 0 0 0 0 0 0 0 0 0 0 0 0 0 0 0 0 0 0 0 0 0 0
0 -0 -0 0 0 0 0 0 0 0 0 0 0 0 0 0 0 0 0 0 0 0 0 0 0 -0 -0 -0 -0 0 0 0
0 0 0 0 0 0 0 0 0 0 0 0 0 0 0 0 0 0 0 0 0 0 0 0 0 -0 -0 -0 -0 0 0 0
0 0 0 0 0 0 0 0 0 0 0 0 0 0 0 0 0 0 0 0 0 0 0 0 -0 -0 -0 -0 0 0 0 0
0 0 0 0 0 0 0 0 0 0 0 0 0 0 0 0 0 0 0 0 0 0 0 0 0 0 0 0 0 0 0 0
Wind_Speed_500mb
39 39 38 38 35 32 31 28 21 12 10 12 13 13 12 14 19 22 25 27 30 43 45 52 57 52 55 60 57 58 56 47
33 32 31 29 29 30 28 23 18 14 17 21 26 23 25 29 33 33 35 31 30 28 44 69 76 73 73 69 63 55 54 46
26 27 27 27 24 25 23 22 21 20 23 33 37 36 37 42 49 52 54 59 62 69 73 68 69 67 66 66 61 59 57 56
22 25 24 23 21 24 22 25 24 27 35 43 51 52 56 60 71 76 80 84 84 77 73 76 71 73 66 64 66 63 58 53
18 20 20 21 22 24 27 30 34 39 46 57 70 81 85 86 84 86 85 85 81 78 78 73 68 67 64 60 59 56 52 48
16 19 19 19 21 25 31 40 55 70 76 82 82 84 85 85 78 76 78 79 75 75 74 72 67 60 57 54 53 50 47 45
14 18 22 22 26 30 42 55 66 73 78 79 79 80 83 82 80 75 77 73 74 69 67 67 66 57 53 48 47 44 41 37
17 20 24 31 35 43 47 52 62 67 76 76 72 72 72 72 71 69 67 64 64 62 59 59 55 46 41 37 36 35 36 32
22 24 27 31 36 39 47 53 59 63 66 64 63 63 61 58 59 56 55 55 53 51 48 47 46 38 34 32 32 30 29 26
28 30 32 35 41 45 48 50 53 57 56 56 54 53 51 50 49 48 46 45 44 42 40 38 37 33 29 26 25 24 23 22
31 32 33 36 39 41 44 47 48 49 49 47 45 43 43 42 40 39 36 37 36 34 32 30 29 27 24 22 21 20 20 22
37 36 36 35 35 37 39 40 41 41 41 39 37 34 34 32 31 29 28 28 27 24 24 22 21 20 18 18 20 21 23 24
33 32 32 32 30 28 30 32 33 33 32 30 28 26 25 22 22 21 20 18 17 17 18 19 19 22 25 27 26 24 24 26
36 33 31 31 30 25 25 25 25 24 23 22 21 19 20 19 16 14 12 11 11 12 14 16 19 22 22 19 19 19 22 26
42 39 35 33 30 28 23 22 23 23 23 22 19 17 15 12 10 7 5 5 8 11 12 13 15 16 17 18 21 25 28 32
42 39 34 33 31 30 28 25 23 22 21 20 17 14 11 9 7 6 3 3 4 6 8 10 10 14 17 23 29 34 37 40
47 44 42 39 37 35 33 32 32 30 25 20 18 17 16 14 11 10 11 12 13 12 13 11 10 14 20 25 27 34 42 47
55 49 49 47 45 42 40 37 33 29 29 29 27 24 20 19 20 21 22 24 23 23 20 15 14 18 22 26 29 38 46 52
57 55 54 52 50 46 45 43 41 40 39 38 34 31 31 29 29 31 32 31 30 28 24 20 19 22 27 32 38 44 50 56
57 57 58 58 54 54 52 51 49 48 46 42 39 39 39 40 40 40 40 39 35 33 30 28 28 29 30 34 41 48 53 57
Wind_Direction_500mb
15 15 14 11 12 18 18 23 28 42 90 111 116 128 135 149 155 155 158 160 159 176 159 146 167 167 163 151 138 134 128 124
22 21 21 19 18 25 28 37 55 78 99 112 108 114 125 132 131 136 138 142 162 160 137 128 129 133 131 126 125 126 119 115
26 28 30 35 35 40 46 51 64 86 106 112 112 115 121 121 123 125 123 129 127 126 121 114 115 116 112 111 108 107 107 108
32 38 40 46 51 57 61 71 84 100 108 113 115 116 114 112 117 114 116 114 115 111 104 102 95 91 95 102 102 103 103 103
35 41 45 55 64 76 81 88 95 100 106 109 110 110 109 109 106 103 101 99 96 99 96 97 101 103 103 102 102 103 99 94
38 48 52 64 82 89 100 106 111 110 109 107 109 108 107 105 101 100 102 103 109 106 102 99 98 99 100 97 93 88 84 77
58 71 78 81 91 106 114 116 115 111 109 106 103 103 104 107 109 110 107 106 106 105 103 100 94 90 86 86 89 89 85 76
85 93 100 101 108 118 116 114 111 113 110 109 108 108 108 109 109 107 106 105 102 99 96 94 92 87 83 78 76 73 71 66
82 91 102 114 122 123 123 120 117 112 111 112 111 108 107 107 105 104 105 104 101 98 95 94 90 87 82 74 69 66 65 60
112 113 116 118 120 118 115 113 112 112 113 112 110 108 107 107 108 105 102 100 97 93 90 87 84 79 74 68 63 58 53 45
126 125 125 127 126 123 121 119 117 114 111 109 107 106 106 104 102 100 99 94 92 94 90 86 86 77 64 56 51 43 33 25
136 132 127 124 125 127 126 124 119 119 118 117 115 112 108 108 105 100 94 88 86 83 84 79 73 73 65 49 37 29 24 16
147 143 141 138 140 142 137 133 130 129 128 125 120 120 119 112 107 105 98 91 85 76 67 56 49 40 31 24 20 16 9 2
161 163 162 158 156 162 156 147 140 137 137 137 139 142 141 136 122 116 108 93 72 59 49 40 33 25 18 6 358 1 350 347
178 177 178 176 172 170 174 167 166 168 166 165 163 160 153 148 142 133 100 53 34 25 19 14 12 5 355 353 350 348 351 345
189 187 188 191 190 189 188 191 191 189 185 184 183 181 184 191 196 213 243 307 312 319 332 337 334 343 346 357 352 347 345 338
199 199 200 203 206 206 205 206 208 207 202 201 209 216 219 225 239 261 267 258 261 264 267 280 312 336 356 353 346 337 333 334
207 206 208 210 212 213 214 216 219 218 218 219 223 230 236 246 254 259 257 258 258 256 259 276 323 332 339 338 336 333 332 331
209 209 213 216 217 218 220 223 224 225 227 229 227 231 238 246 252 256 260 260 262 264 270 284 295 306 320 327 328 329 329 327
217 217 219 222 220 224 226 228 230 231 233 236 238 240 242 244 249 255 258 262 265 270 279 284 291 297 304 311 317 320 321 321
Wind_Speed_850mb
39 39 38 38 35 32 31 28 21 12 10 12 13 13 12 14 19 22 25 27 30 43 45 52 57 52 55 60 57 58 56 47
33 32 31 29 29 30 28 23 18 14 17 21 26 23 25 29 33 33 35 31 30 28 44 69 76 73 73 69 63 55 54 46
26 27 27 27 24 25 23 22 21 20 23 33 37 36 37 42 49 52 54 59 62 69 73 68 69 67 66 66 61 59 57 56
22 25 24 23 21 24 22 25 24 27 35 43 51 52 56 60 71 76 80 84 84 77 73 76 71 73 66 64 66 63 58 53
18 20 20 21 22 24 27 30 34 39 46 57 70 81 85 86 84 86 85 85 81 78 78 73 68 67 64 60 59 56 52 48
16 19 19 19 21 25 31 40 55 70 76 82 82 84 85 85 78 76 78 79 75 75 74 72 67 60 57 54 53 50 47 45
14 18 22 22 26 30 42 55 66 73 78 79 79 80 83 82 80 75 77 73 74 69 67 67 66 57 53 48 47 44 41 37
17 20 24 31 35 43 47 52 62 67 76 76 72 72 72 72 71 69 67 64 64 62 59 59 55 46 41 37 36 35 36 32
22 24 27 31 36 39 47 53 59 63 66 64 63 63 61 58 59 56 55 55 53 51 48 47 46 38 34 32 32 30 29 26
28 30 32 35 41 45 48 50 53 57 56 56 54 53 51 50 49 48 46 45 44 42 40 38 37 33 29 26 25 24 23 22
31 32 33 36 39 41 44 47 48 49 49 47 45 43 43 42 40 39 36 37 36 34 32 30 29 27 24 22 21 20 20 22
37 36 36 35 35 37 39 40 41 41 41 39 37 34 34 32 31 29 28 28 27 24 24 22 21 20 18 18 20 21 23 24
33 32 32 32 30 28 30 32 33 33 32 30 28 26 25 22 22 21 20 18 17 17 18 19 19 22 25 27 26 24 24 26
36 33 31 31 30 25 25 25 25 24 23 22 21 19 20 19 16 14 12 11 11 12 14 16 19 22 22 19 19 19 22 26
42 39 35 33 30 28 23 22 23 23 23 22 19 17 15 12 10 7 5 5 8 11 12 13 15 16 17 18 21 25 28 32
42 39 34 33 31 30 28 25 23 22 21 20 17 14 11 9 7 6 3 3 4 6 8 10 10 14 17 23 29 34 37 40
47 44 42 39 37 35 33 32 32 30 25 20 18 17 16 14 11 10 11 12 13 12 13 11 10 14 20 25 27 34 42 47
55 49 49 47 45 42 40 37 33 29 29 29 27 24 20 19 20 21 22 24 23 23 20 15 14 18 22 26 29 38 46 52
57 55 54 52 50 46 45 43 41 40 39 38 34 31 31 29 29 31 32 31 30 28 24 20 19 22 27 32 38 44 50 56
57 57 58 58 54 54 52 51 49 48 46 42 39 39 39 40 40 40 40 39 35 33 30 28 28 29 30 34 41 48 53 57
Wind_Direction_850mb
15 15 14 11 12 18 18 23 28 42 90 111 116 128 135 149 155 155 158 160 159 176 159 146 167 167 163 151 138 134 128 124
22 21 21 19 18 25 28 37 55 78 99 112 108 114 125 132 131 136 138 142 162 160 137 128 129 133 131 126 125 126 119 115
26 28 30 35 35 40 46 51 64 86 106 112 112 115 121 121 123 125 123 129 127 126 121 114 115 116 112 111 108 107 107 108
32 38 40 46 51 57 61 71 84 100 108 113 115 116 114 112 117 114 116 114 115 111 104 102 95 91 95 102 102 103 103 103
35 41 45 55 64 76 81 88 95 100 106 109 110 110 109 109 106 103 101 99 96 99 96 97 101 103 103 102 102 103 99 94
38 48 52 64 82 89 100 106 111 110 109 107 109 108 107 105 101 100 102 103 109 106 102 99 98 99 100 97 93 88 84 77
58 71 78 81 91 106 114 116 115 111 109 106 103 103 104 107 109 110 107 106 106 105 103 100 94 90 86 86 89 89 85 76
85 93 100 101 108 118 116 114 111 113 110 109 108 108 108 109 109 107 106 105 102 99 96 94 92 87 83 78 76 73 71 66
82 91 102 114 122 123 123 120 117 112 111 112 111 108 107 107 105 104 105 104 101 98 95 94 90 87 82 74 69 66 65 60
112 113 116 118 120 118 115 113 112 112 113 112 110 108 107 107 108 105 102 100 97 93 90 87 84 79 74 68 63 58 53 45
126 125 125 127 126 123 121 119 117 114 111 109 107 106 106 104 102 100 99 94 92 94 90 86 86 77 64 56 51 43 33 25
136 132 127 124 125 127 126 124 119 119 118 117 115 112 108 108 105 100 94 88 86 83 84 79 73 73 65 49 37 29 24 16
147 143 141 138 140 142 137 133 130 129 128 125 120 120 119 112 107 105 98 91 85 76 67 56 49 40 31 24 20 16 9 2
161 163 162 158 156 162 156 147 140 137 137 137 139 142 141 136 122 116 108 93 72 59 49 40 33 25 18 6 358 1 350 347
178 177 178 176 172 170 174 167 166 168 166 165 163 160 153 148 142 133 100 53 34 25 19 14 12 5 355 353 350 348 351 345
189 187 188 191 190 189 188 191 191 189 185 184 183 181 184 191 196 213 243 307 312 319 332 337 334 343 346 357 352 347 345 338
199 199 200 203 206 206 205 206 208 207 202 201 209 216 219 225 239 261 267 258 261 264 267 280 312 336 356 353 346 337 333 334
207 206 208 210 212 213 214 216 219 218 218 219 223 230 236 246 254 259 257 258 258 256 259 276 323 332 339 338 336 333 332 331
209 209 213 216 217 218 220 223 224 225 227 229 227 231 238 246 252 256 260 260 262 264 270 284 295 306 320 327 328 329 329 327
217 217 219 222 220 224 226 228 230 231 233 236 238 240 242 244 249 255 258 262 265 270 279 284 291 297 304 311 317 320 321 321